Location: Unspecified
(9.9280°N, 84.0910°W)
Time: 15:37:20
(UTC+00:00)

Daily predictions for brighter satellites

Satellite Brightness Start Highest point End
(mag) Time Altitude Azimuth Time Altitude Azimuth Time Altitude Azimuth
CZ-3C R/B 3.9 23:02:28 10° NW 23:07:07 47° NNE 23:41:00 10° E
ADEOS Rocket 4.0 23:44:38 10° NE 23:51:12 40° ESE 23:58:11 10° S
FengYun 1-2 T 4.5 23:47:51 10° SSE 23:53:11 50° ENE 23:58:34 10° N
